Location: Unspecified
(48.5670°N, 0.0000°E)
Time: 07:09:44
(UTC+00:00)

Vanguard 3 - All Passes

Search period start: 18 July 2019 00:00
Search period end: 28 July 2019 00:00
Orbit: 507 x 3264 km, 33.4° (Epoch: 17 July)

Date Brightness Start Highest point End Pass type
(mag) Time Alt. Az. Time Alt. Az. Time Alt. Az.
18 Jul - 01:45:44 10° S 01:54:07 20° SE 02:04:54 10° E visible
18 Jul - 03:53:07 10° SW 04:06:08 41° SSE 04:23:25 10° E daylight
18 Jul - 06:04:30 10° WSW 06:20:28 49° S 06:38:44 10° ESE daylight
18 Jul - 08:18:26 10° W 08:35:09 39° SSW 08:51:07 10° SE daylight
18 Jul - 10:36:25 10° W 10:48:02 19° SW 10:58:24 10° S daylight
19 Jul - 02:40:23 10° SSW 02:51:08 31° SSE 03:05:59 10° E visible
19 Jul - 04:50:11 10° WSW 05:04:23 47° S 05:22:39 10° ESE daylight
19 Jul - 07:02:46 10° WSW 07:19:09 45° SSW 07:36:42 10° SE daylight
19 Jul - 09:18:10 10° W 09:33:06 29° SW 09:46:57 10° SSE daylight
20 Jul - 01:28:55 10° S 01:36:55 21° SE 01:47:34 10° E visible
20 Jul - 03:36:37 10° SW 03:48:49 41° SSE 04:05:51 10° E visible
20 Jul - 05:47:53 10° WSW 06:02:59 48° S 06:21:20 10° ESE daylight
20 Jul - 08:01:36 10° W 08:17:34 37° SSW 08:33:44 10° SSE daylight
20 Jul - 10:19:55 10° W 10:30:28 17° SW 10:40:19 10° SSW daylight
21 Jul - 00:21:40 10° SE 00:23:26 10° SE 00:25:18 10° ESE visible
21 Jul - 02:23:55 10° SSW 02:33:57 32° SSE 02:48:24 10° E visible
21 Jul - 04:33:43 10° WSW 04:47:03 47° S 05:05:07 10° ESE daylight
21 Jul - 06:46:06 10° W 07:01:37 43° SSW 07:19:17 10° SE daylight
21 Jul - 09:01:25 10° W 09:15:30 26° SW 09:29:16 10° S daylight
22 Jul - 01:12:20 10° S 01:19:51 22° SE 01:30:09 10° E visible
22 Jul - 03:20:16 10° SW 03:31:37 41° SSE 03:48:12 10° ESE visible
22 Jul - 05:31:24 10° WSW 05:45:35 46° S 06:03:47 10° ESE daylight
22 Jul - 07:44:56 10° W 07:59:59 34° SSW 08:16:07 10° SSE daylight
22 Jul - 10:03:53 10° WSW 10:12:54 15° SW 10:21:39 10° SSW daylight
23 Jul - 00:04:03 10° SE 00:06:27 11° SE 00:09:06 10° ESE visible
23 Jul - 02:07:36 10° SSW 02:16:53 33° SSE 02:30:45 10° E visible
23 Jul - 04:17:24 10° WSW 04:29:48 46° S 04:47:26 10° ESE daylight
23 Jul - 06:29:35 10° W 06:44:09 41° SSW 07:01:37 10° SE daylight
23 Jul - 08:44:56 10° W 08:57:55 24° SW 09:11:14 10° S daylight
24 Jul - 00:55:56 10° S 01:02:55 22° SE 01:12:42 10° E visible
24 Jul - 03:04:03 10° SW 03:14:33 41° SSE 03:30:29 10° ESE visible
24 Jul - 05:15:04 10° WSW 05:28:16 44° S 05:46:03 10° SE daylight
24 Jul - 07:28:27 10° W 07:42:28 32° SSW 07:58:15 10° SSE daylight
24 Jul - 09:48:40 10° WSW 09:55:22 13° SW 10:02:04 10° SSW daylight
24 Jul - 23:47:04 10° SE 23:49:36 11° SE 23:52:26 10° ESE visible
25 Jul - 01:51:24 10° SSW 01:59:58 32° SSE 02:13:05 10° E visible
25 Jul - 04:01:12 10° WSW 04:12:41 44° S 04:29:39 10° ESE daylight
25 Jul - 06:13:14 10° W 06:26:45 38° SSW 06:43:46 10° SE daylight
25 Jul - 08:28:45 10° WSW 08:40:24 21° SW 08:52:48 10° S daylight
26 Jul - 00:39:41 10° S 00:46:06 22° SE 00:55:15 10° E visible
26 Jul - 02:47:57 10° SW 02:57:36 40° SSE 03:12:42 10° ESE visible
26 Jul - 04:58:52 10° WSW 05:11:03 42° S 05:28:10 10° SE daylight
26 Jul - 07:12:12 10° W 07:25:02 28° SSW 07:40:05 10° SSE daylight
26 Jul - 09:36:39 10° SW 09:37:54 10° SW 09:39:09 10° SW daylight
26 Jul - 23:30:26 10° SSE 23:32:52 11° SE 23:35:37 10° ESE visible
27 Jul - 01:35:20 10° SW 01:43:10 32° SSE 01:55:24 10° ESE visible
27 Jul - 03:45:07 10° WSW 03:55:41 42° S 04:11:47 10° ESE visible
27 Jul - 05:57:03 10° WSW 06:09:27 35° SSW 06:25:41 10° SE daylight
27 Jul - 08:12:59 10° WSW 08:22:58 18° SW 08:33:51 10° S daylight
